Date String (YYYY-MM-DD hh:mm:ss) UTC,Instrument flags,Ambient pressure (hPa),Sample flow (lpm),Bypass flow (lpm),Sample temperature (°C),Ambient temperature (°C),ASC tube jacket temperature (°C),LED temperature (°C),Box temperature (°C),Sample RH (%),Span deviation,Mass concentration (μg/m³),Mass concentration (μg/m³),Mass concentration (μg/m³)
DateTimeUTC,F1_M11,P_M11,Q1_M11,Q2_M11,T1_M11,T2_M11,T3_M11,T4_M11,T5_M11,U1_M11,ZSPAN_M11,X2_M11,X0_M11,X1_M11
2022-02-04 04:00:00,,0830.6,5.00,0.00,21.7,22.2,00.0,30.8,23.4,05.8,0002.5,0004.32,0006.66,0004.09
2022-02-04 04:01:00,,0830.6,5.01,0.00,21.8,22.8,00.0,30.8,23.7,05.8,0002.8,0004.33,0006.83,0004.09
2022-02-04 04:02:00,,0830.6,5.00,0.00,22.0,22.9,00.0,30.8,23.8,05.8,0003.0,0004.37,0007.00,0004.14
2022-02-04 04:03:00,,0830.5,4.98,0.00,21.9,22.3,00.0,30.8,23.6,05.7,0003.3,0004.40,0007.05,0004.18
2022-02-04 04:04:00,,0830.6,5.01,0.00,21.8,21.8,00.0,30.8,23.3,05.7,0003.1,0004.43,0006.99,0004.22
2022-02-04 04:05:00,,0830.6,5.00,0.00,21.6,21.3,00.0,30.8,23.0,05.8,0002.6,0004.49,0007.09,0004.27
2022-02-04 04:06:00,,0830.5,4.99,0.00,21.5,20.8,00.0,30.7,22.7,05.9,0002.4,0004.59,0007.28,0004.36
2022-02-04 04:07:00,,0830.6,5.02,0.00,21.3,20.5,00.0,30.7,22.6,06.0,0002.4,0004.75,0007.47,0004.51
2022-02-04 04:08:00,,0830.6,4.99,0.00,21.4,21.1,00.0,30.7,22.8,06.0,0002.2,0004.93,0007.71,0004.66
2022-02-04 04:09:00,,0830.5,4.99,0.00,21.5,21.8,00.0,30.7,23.2,06.0,0002.2,0005.09,0008.24,0004.81
2022-02-04 04:10:00,,0830.6,5.00,0.00,21.7,22.4,00.0,30.7,23.5,06.0,0002.2,0005.26,0008.67,0004.97
2022-02-04 04:11:00,,0830.6,5.02,0.00,21.8,22.9,00.0,30.8,23.7,05.9,0002.3,0005.40,0008.93,0005.13
2022-02-04 04:12:00,,0830.5,4.99,0.00,21.9,22.7,00.0,30.8,23.7,05.8,0002.2,0005.51,0009.16,0005.24
2022-02-04 04:13:00,,0830.6,5.00,0.00,21.8,22.2,00.0,30.8,23.4,05.9,0002.6,0005.61,0009.24,0005.33
2022-02-04 04:14:00,,0830.6,5.00,0.00,21.7,21.7,00.0,30.8,23.2,05.9,0002.2,0005.72,0009.84,0005.45
2022-02-04 04:15:00,,0830.6,5.00,0.00,21.6,21.3,00.0,30.7,23.0,06.0,0001.8,0005.89,0010.32,0005.61
2022-02-04 04:16:00,,0830.6,4.99,0.00,21.5,20.9,00.0,30.7,22.9,06.0,0002.0,0006.09,0010.58,0005.80
2022-02-04 04:17:00,,0830.6,5.01,0.00,21.4,20.7,00.0,30.7,22.8,06.1,0002.3,0006.26,0010.80,0005.97
2022-02-04 04:18:00,,0830.7,5.00,0.00,21.5,21.2,00.0,30.7,23.0,06.1,0002.6,0006.30,0010.86,0006.02
2022-02-04 04:19:00,,0830.7,4.99,0.00,21.6,22.0,00.0,30.7,23.3,05.9,0003.0,0006.21,0010.74,0005.94
2022-02-04 04:20:00,,0830.7,5.02,0.00,21.7,22.7,00.0,30.7,23.5,05.8,0003.0,0006.05,0010.20,0005.80
2022-02-04 04:21:00,,0830.7,4.99,0.00,21.8,22.5,00.0,30.7,23.6,05.8,0003.0,0005.91,0009.82,0005.66
2022-02-04 04:22:00,,0830.7,5.01,0.00,21.7,22.0,00.0,30.7,23.3,05.8,0002.9,0005.82,0009.54,0005.58
2022-02-04 04:23:00,,0830.7,4.99,0.00,21.6,21.5,00.0,30.7,23.0,05.8,0002.8,0005.78,0009.75,0005.54
2022-02-04 04:24:00,,0830.7,5.01,0.00,21.5,21.0,00.0,30.7,22.8,05.9,0002.3,0005.73,0009.80,0005.51
2022-02-04 04:25:00,,0830.7,4.99,0.00,21.3,20.7,00.0,30.6,22.6,05.9,0002.4,0005.72,0009.20,0005.50
2022-02-04 04:26:00,,0830.7,5.00,0.00,21.4,21.2,00.0,30.6,22.8,06.0,0002.3,0005.75,0009.02,0005.54
2022-02-04 04:27:00,,0830.7,5.01,0.00,21.5,21.8,00.0,30.7,23.2,06.0,0002.3,0005.90,0009.25,0005.68
2022-02-04 04:28:00,,0830.7,4.99,0.00,21.7,22.4,00.0,30.7,23.4,06.1,0002.5,0006.08,0009.44,0005.84
2022-02-04 04:29:00,,0830.8,5.00,0.00,21.8,22.9,00.0,30.8,23.7,06.0,0002.0,0006.28,0009.64,0006.03
2022-02-04 04:30:00,,0830.7,4.99,0.00,21.9,22.6,00.0,30.8,23.6,05.9,0001.7,0006.42,0009.78,0006.18
2022-02-04 04:31:00,,0830.7,5.02,0.00,21.7,21.9,00.0,30.8,23.2,05.9,0001.9,0006.56,0009.93,0006.31
2022-02-04 04:32:00,,0830.7,4.99,0.00,21.6,21.3,00.0,30.7,22.9,05.9,0001.8,0006.63,0010.02,0006.38
2022-02-04 04:33:00,,0830.7,5.01,0.00,21.4,20.8,00.0,30.7,22.6,06.0,0001.8,0006.65,0010.05,0006.39
2022-02-04 04:34:00,,0830.8,4.99,0.00,21.3,20.5,00.0,30.6,22.5,06.1,0002.1,0006.80,0009.84,0006.51
2022-02-04 04:35:00,,0830.8,5.00,0.00,21.3,21.0,00.0,30.6,22.7,06.1,0002.9,0007.06,0010.02,0006.74
2022-02-04 04:36:00,,0830.8,5.01,0.00,21.5,21.9,00.0,30.6,23.1,06.1,0003.4,0007.21,0010.26,0006.90
2022-02-04 04:37:00,,0830.9,5.00,0.00,21.6,22.6,00.0,30.7,23.4,06.0,0004.3,0007.19,0010.30,0006.87
2022-02-04 04:38:00,,0830.8,5.00,0.00,21.8,23.0,00.0,30.7,23.6,05.9,0004.7,0007.04,0010.05,0006.75
2022-02-04 04:39:00,,0830.8,4.99,0.00,21.7,22.4,00.0,30.7,23.4,06.0,0004.5,0006.94,0009.90,0006.69
2022-02-04 04:40:00,,0830.8,5.01,0.00,21.6,21.8,00.0,30.7,23.1,06.0,0004.2,0006.86,0009.85,0006.61
2022-02-04 04:41:00,,0830.8,5.00,0.00,21.5,21.3,00.0,30.6,22.8,06.1,0003.7,0006.92,0009.93,0006.66
2022-02-04 04:42:00,,0830.8,4.99,0.00,21.3,20.9,00.0,30.6,22.6,06.2,0003.0,0007.12,0010.38,0006.85
2022-02-04 04:43:00,,0830.8,5.01,0.00,21.2,20.5,00.0,30.6,22.4,06.2,0002.7,0007.29,0011.26,0007.03
2022-02-04 04:44:00,,0830.8,5.01,0.00,21.2,20.9,00.0,30.5,22.6,06.1,0002.9,0007.38,0011.80,0007.11
2022-02-04 04:45:00,,0830.9,4.99,0.00,21.4,21.7,00.0,30.6,23.0,06.0,0003.4,0007.31,0011.70,0007.08
2022-02-04 04:46:00,,0830.9,5.00,0.00,21.5,22.4,00.0,30.6,23.3,05.9,0002.9,0007.09,0011.46,0006.87
2022-02-04 04:47:00,,0830.9,5.01,0.00,21.7,22.8,00.0,30.6,23.6,05.8,0002.9,0006.88,0011.25,0006.66
2022-02-04 04:48:00,,0830.9,4.99,0.00,21.7,22.4,00.0,30.7,23.5,05.8,0002.5,0006.75,0011.02,0006.53
2022-02-04 04:49:00,,0830.8,5.00,0.00,21.6,21.9,00.0,30.6,23.2,05.8,0002.2,0006.65,0010.89,0006.43
2022-02-04 04:50:00,,0830.8,4.99,0.00,21.5,21.4,00.0,30.6,23.0,05.9,0002.5,0006.48,0010.70,0006.26
2022-02-04 04:51:00,,0830.9,5.00,0.00,21.4,21.0,00.0,30.6,22.8,05.9,0003.2,0006.32,0010.49,0006.11
2022-02-04 04:52:00,,0830.9,5.01,0.00,21.3,20.7,00.0,30.6,22.6,06.0,0003.6,0006.23,0010.40,0006.01
2022-02-04 04:53:00,,0830.9,4.99,0.00,21.3,21.1,00.0,30.5,22.8,06.0,0003.5,0006.06,0009.99,0005.83
2022-02-04 04:54:00,,0831.0,4.99,0.00,21.5,21.9,00.0,30.6,23.1,05.9,0003.7,0005.93,0009.21,0005.68
2022-02-04 04:55:00,,0830.9,5.00,0.00,21.6,22.6,00.0,30.6,23.4,05.9,0001.3,0005.92,0008.85,0005.67
2022-02-04 04:56:00,,0830.9,5.00,0.00,21.8,22.6,00.0,30.7,23.5,05.8,0001.7,0005.94,0008.88,0005.69
2022-02-04 04:57:00,,0831.0,5.00,0.00,21.7,22.2,00.0,30.7,23.4,05.9,0001.7,0006.04,0009.00,0005.76
2022-02-04 04:58:00,,0830.9,5.02,0.00,21.6,21.7,00.0,30.6,23.1,05.9,0001.6,0006.21,0009.16,0005.90
2022-02-04 04:59:00,,0831.0,5.00,0.00,21.5,21.3,00.0,30.6,23.0,05.9,0001.3,0006.35,0009.33,0006.03
